False Pass, AK

7:31 PM HDT on July 24, 2017 (GMT -0900)
False Pass

Weather History for PAKF - September, 2013

Change the Weather History Date:

Monday, September 23, 2013

  Actual Average (PACD) Record (PACD)
Temperature  
Mean Temperature 46 °F -  
Max Temperature 48 °F 50 °F 62 °F (1951)
Min Temperature 39 °F 42 °F 32 °F (1979)
Degree Days  
Heating Degree Days 20    
Moisture  
Dew Point 44 °F    
Average Humidity 88    
Maximum Humidity 93    
Minimum Humidity 71    
Precipitation  
Precipitation 0.03 in - - ()
Sea Level Pressure  
Sea Level Pressure 29.93 in    
Wind  
Wind Speed 10 mph (SE)    
Max Wind Speed 24 mph    
Max Gust Speed 32 mph    
Visibility 10 miles    
Events Rain    
Averages and records for this station are not official NWS values.
T = Trace of Precipitation, MM = Missing Value Source: NWS Daily Summary

Daily Weather History Graph

Daily Weather History Graph

Search for Another Location

Airport or City:

Trip Planner

Search our weather history database for the weather conditions in past years. The results will help you decide how hot, cold, wet, or windy it might be!

Date:

Astronomy

Sep. 23, 2013 Rise Set
Actual Time 7:41 AM HDT 7:48 PM HDT
Civil Twilight 7:05 AM HDT 8:24 PM HDT
Nautical Twilight 6:23 AM HDT 9:07 PM HDT
Astronomical Twilight 5:38 AM HDT 9:51 PM HDT
Moon 9:41 PM HDT (9/23) 12:59 PM HDT (9/23)
Length of Visible Light 13h 18m
Length of Day
12h 06m
Waning Gibbous, 80% of the Moon is Illuminated
Sep 23
Waning Gibbous
Sep 26
Last Quarter
Oct 4
New
Oct 11
First Quarter
Oct 18
Full

Hourly Weather History & Observations

Time (HDT) Temp. Windchill Dew Point Humidity Pressure Visibility Wind Dir Wind Speed Gust Speed Precip Events Conditions
12:01 AM 39.9 °F 36.7 °F 37.0 °F 89% 30.18 in 10.0 mi SW 4.6 mph - N/A   Clear
1:01 AM 39.9 °F 36.7 °F 37.0 °F 89% 30.18 in 10.0 mi SSW 4.6 mph - N/A   Clear
2:01 AM 39.9 °F 35.8 °F 37.9 °F 93% 30.18 in 10.0 mi South 5.8 mph - N/A   Mostly Cloudy
3:01 AM 39.9 °F 37.8 °F 37.9 °F 93% 30.17 in 10.0 mi SSW 3.5 mph - N/A   Overcast
4:01 AM 42.1 °F 40.2 °F 37.9 °F 85% 30.17 in 10.0 mi Variable 3.5 mph - N/A   Overcast
5:01 AM 42.1 °F 40.2 °F 39.0 °F 89% 30.16 in 10.0 mi SSW 3.5 mph - N/A   Overcast
6:01 AM 41.0 °F 36.4 °F 39.0 °F 93% 30.14 in 10.0 mi South 6.9 mph - N/A   Overcast
7:01 AM 44.1 °F 40.8 °F 42.1 °F 93% 30.14 in 10.0 mi ESE 5.8 mph - 0.00 in Rain Light Rain
8:01 AM 45.0 °F 40.6 °F 43.0 °F 93% 30.13 in 10.0 mi SE 8.1 mph - 0.00 in   Overcast
8:32 AM 46.4 °F 41.5 °F 42.8 °F 87% 29.84 in 10.0 mi SE 10.4 mph - N/A   Mostly Cloudy
9:01 AM 46.0 °F 40.2 °F 44.1 °F 93% 30.12 in 10.0 mi ESE 12.7 mph - 0.00 in Rain Light Rain
9:11 AM 46.4 °F 40.7 °F 44.6 °F 93% 29.83 in 10.0 mi ESE 12.7 mph - 0.00 in   Mostly Cloudy
10:01 AM 46.9 °F - 45.0 °F 93% 30.11 in 10.0 mi ESE 11.5 mph - 0.00 in   Overcast
11:01 AM 48.2 °F - 46.4 °F 93% 29.81 in 10.0 mi ESE 11.5 mph 18.4 mph 0.00 in Rain Light Rain
11:08 AM 48.9 °F - 44.1 °F 83% 30.10 in 10.0 mi SE 8.1 mph 18.4 mph 0.00 in Rain Light Rain
11:24 AM 48.2 °F - 46.4 °F 93% 29.82 in 10.0 mi SE 12.7 mph 18.4 mph 0.00 in Rain Light Rain
11:48 AM 50.0 °F - 44.6 °F 82% 29.81 in 10.0 mi SE 11.5 mph - 0.00 in Rain Light Rain
12:01 PM 50.0 °F - 43.0 °F 77% 30.09 in 10.0 mi ESE 12.7 mph 17.3 mph 0.00 in Rain Light Rain
12:24 PM 48.2 °F - 44.6 °F 87% 29.80 in 10.0 mi ESE 13.8 mph - 0.00 in   Overcast
1:01 PM 51.1 °F - 45.0 °F 80% 30.08 in 10.0 mi SSE 13.8 mph 23.0 mph 0.00 in   Overcast
1:15 PM 51.8 °F - 46.4 °F 82% 29.80 in 10.0 mi SE 13.8 mph 21.9 mph N/A   Overcast
2:01 PM 52.0 °F - 45.0 °F 77% 30.06 in 10.0 mi SSE 13.8 mph 23.0 mph N/A   Overcast
3:01 PM 52.0 °F - 44.1 °F 74% 30.06 in 10.0 mi SE 20.7 mph 26.5 mph N/A   Overcast
3:24 PM 51.8 °F - 44.6 °F 76% 29.76 in 10.0 mi SE 17.3 mph 29.9 mph N/A   Mostly Cloudy
4:01 PM 51.1 °F - 44.1 °F 77% 30.04 in 10.0 mi SE 24.2 mph 32.2 mph N/A   Scattered Clouds
5:01 PM 52.0 °F - 43.0 °F 71% 30.02 in 10.0 mi SE 20.7 mph 26.5 mph N/A   Overcast
6:01 PM 50.0 °F - 44.1 °F 80% 30.01 in 10.0 mi SE 13.8 mph 25.3 mph N/A   Mostly Cloudy
7:01 PM 48.9 °F - 45.0 °F 86% 29.99 in 10.0 mi SSE 11.5 mph 24.2 mph N/A   Overcast
7:19 PM 48.2 °F - 44.6 °F 87% 29.70 in 10.0 mi SE 10.4 mph 19.6 mph N/A   Overcast
7:54 PM 48.2 °F - 46.4 °F 93% 29.70 in 10.0 mi SE 11.5 mph 20.7 mph N/A   Overcast
8:01 PM 48.2 °F - 46.4 °F 93% 29.69 in 10.0 mi SSE 9.2 mph 20.7 mph N/A   Overcast
8:07 PM 48.2 °F - 46.4 °F 93% 29.69 in 10.0 mi SSE 12.7 mph 21.9 mph N/A   Overcast
8:13 PM 48.2 °F - 46.4 °F 93% 29.69 in 10.0 mi SE 10.4 mph 21.9 mph N/A   Overcast
8:34 PM 48.9 °F - 46.0 °F 90% 29.97 in 10.0 mi SE 15.0 mph 24.2 mph N/A   Overcast
8:44 PM 48.2 °F - 46.4 °F 93% 29.69 in 10.0 mi SE 15.0 mph 20.7 mph N/A   Overcast
9:01 PM 48.9 °F - 46.9 °F 93% 29.97 in 10.0 mi SE 11.5 mph 20.7 mph N/A   Overcast
9:19 PM 48.2 °F - 46.4 °F 93% 29.69 in 10.0 mi SE 15.0 mph 21.9 mph N/A   Overcast
10:01 PM 48.9 °F - 46.9 °F 93% 29.95 in 10.0 mi ESE 13.8 mph 21.9 mph N/A   Overcast
10:16 PM 48.2 °F - 46.4 °F 93% 29.67 in 9.0 mi SE 16.1 mph 19.6 mph 0.00 in Rain Light Rain
10:31 PM 48.2 °F - 46.4 °F 93% 29.66 in 10.0 mi SE 12.7 mph 21.9 mph 0.01 in Rain Light Rain
10:56 PM 48.2 °F - 46.4 °F 93% 29.64 in 9.0 mi SE 10.4 mph 23.0 mph 0.02 in Rain Light Rain
11:01 PM 48.9 °F - 46.0 °F 90% 29.92 in 9.0 mi SE 15.0 mph 23.0 mph 0.03 in Rain Light Rain
11:11 PM 48.2 °F - 46.4 °F 93% 29.64 in 9.0 mi SE 13.8 mph 21.9 mph 0.01 in Rain Light Rain